Back to catalog

STAR VIBE

AliveScienceSSO
NORAD 55009·PAYLOAD·🇵🇱 Poland
This satellite name has not been confirmed by official sources yet.

Launched Jan 3, 2023 from Cape Canaveral Space Force Station

Loading…

Next Passes (next 24 hours)

TLE

FreshSource: Space-Track

Epoch: Sep 14, 2026, 14:55 UTC

1 55009U 23001A   26257.62190895  .00012221  00000-0  26245-3 0  9997
2 55009  97.3074 322.5449 0006359 138.0453 222.1284 15.44818699206023

Track STAR VIBE in real time with AllMySat

Download on the App Store